Time,TemperatureF,DewpointF,PressureIn,WindDirection,WindDirectionDegrees,WindSpeedMPH,WindSpeedGustMPH,Humidity,HourlyPrecipIn,Conditions,Clouds,dailyrainin,SoftwareType,DateUTC
2013-02-23 00:01:00,77.0,77.0,29.70,North,0,0.0,0.0,99,0.00,,,0.13,,2013-02-22 14:01:00,
2013-02-23 00:32:00,76.0,76.0,29.68,NW,314,0.0,1.0,99,0.00,,,0.13,,2013-02-22 14:32:00,
2013-02-23 00:42:00,76.0,76.0,29.68,NW,314,0.0,1.0,99,0.00,,,0.13,,2013-02-22 14:42:00,
2013-02-23 00:53:00,76.0,76.0,29.67,North,0,0.0,0.0,99,0.00,,,0.13,,2013-02-22 14:53:00,
2013-02-23 01:01:00,77.0,77.0,29.66,NW,314,0.0,1.0,99,0.00,,,0.13,,2013-02-22 15:01:00,
2013-02-23 01:11:00,77.0,77.0,29.66,NW,314,0.0,1.0,99,0.00,,,0.13,,2013-02-22 15:11:00,
2013-02-23 01:21:00,77.0,77.0,29.66,NW,314,0.0,1.0,99,0.00,,,0.13,,2013-02-22 15:21:00,
2013-02-23 01:31:00,77.0,77.0,29.66,NW,325,0.0,1.0,99,0.00,,,0.13,,2013-02-22 15:31:00,
2013-02-23 01:41:00,77.0,77.0,29.66,NW,325,0.0,1.0,99,0.00,,,0.13,,2013-02-22 15:41:00,
2013-02-23 01:52:00,77.0,77.0,29.66,NW,314,0.0,1.0,99,0.00,,,0.13,,2013-02-22 15:52:00,
2013-02-23 02:01:00,76.0,76.0,29.65,NW,314,0.0,1.0,99,0.00,,,0.13,,2013-02-22 16:01:00,
2013-02-23 02:11:00,76.0,76.0,29.65,NW,314,0.0,1.0,99,0.00,,,0.13,,2013-02-22 16:11:00,
2013-02-23 02:21:00,76.0,76.0,29.65,NE,46,0.0,2.0,99,0.00,,,0.13,,2013-02-22 16:21:00,
2013-02-23 02:31:00,77.0,77.0,29.65,NW,314,0.0,1.0,99,0.00,,,0.13,,2013-02-22 16:31:00,
2013-02-23 02:41:00,77.0,77.0,29.65,NW,314,0.0,1.0,99,0.00,,,0.13,,2013-02-22 16:41:00,
2013-02-23 02:52:00,77.0,77.0,29.65,NW,314,0.0,1.0,99,0.00,,,0.13,,2013-02-22 16:52:00,
2013-02-23 03:01:00,77.0,77.0,29.63,North,0,0.0,0.0,99,0.00,,,0.13,,2013-02-22 17:01:00,
2013-02-23 03:11:00,77.0,77.0,29.63,North,0,0.0,0.0,99,0.00,,,0.13,,2013-02-22 17:11:00,
2013-02-23 03:21:00,77.0,77.0,29.63,North,0,0.0,0.0,99,0.00,,,0.13,,2013-02-22 17:21:00,
2013-02-23 03:31:00,76.0,76.0,29.62,North,1,0.0,1.0,99,0.00,,,0.13,,2013-02-22 17:31:00,
2013-02-23 03:41:00,76.0,76.0,29.62,North,1,0.0,1.0,99,0.00,,,0.13,,2013-02-22 17:41:00,
2013-02-23 03:52:00,76.0,76.0,29.62,NW,314,0.0,1.0,99,0.00,,,0.13,,2013-02-22 17:52:00,
2013-02-23 04:01:00,76.0,76.0,29.62,NW,314,0.0,1.0,99,0.00,,,0.13,,2013-02-22 18:01:00,
2013-02-23 04:11:00,77.0,77.0,29.63,NW,309,0.0,2.0,99,0.00,,,0.13,,2013-02-22 18:11:00,
2013-02-23 04:22:00,77.0,77.0,29.63,NW,309,0.0,2.0,99,0.00,,,0.13,,2013-02-22 18:22:00,
2013-02-23 04:31:00,77.0,77.0,29.64,NW,314,0.0,2.0,99,0.00,,,0.13,,2013-02-22 18:31:00,
2013-02-23 04:42:00,77.0,77.0,29.64,NW,314,0.0,2.0,99,0.00,,,0.13,,2013-02-22 18:42:00,
2013-02-23 04:52:00,77.0,77.0,29.64,NW,326,0.0,1.0,99,0.00,,,0.13,,2013-02-22 18:52:00,
2013-02-23 05:01:00,77.0,77.0,29.64,North,0,0.0,0.0,99,0.00,,,0.13,,2013-02-22 19:01:00,
2013-02-23 05:11:00,77.0,77.0,29.64,North,0,0.0,0.0,99,0.00,,,0.13,,2013-02-22 19:11:00,
2013-02-23 05:21:00,77.0,77.0,29.64,North,0,0.0,0.0,99,0.00,,,0.13,,2013-02-22 19:21:00,
2013-02-23 05:31:00,77.0,77.0,29.65,North,0,0.0,0.0,99,0.00,,,0.13,,2013-02-22 19:31:00,
2013-02-23 05:41:00,77.0,77.0,29.65,North,0,0.0,0.0,99,0.00,,,0.13,,2013-02-22 19:41:00,
2013-02-23 05:51:00,77.0,77.0,29.65,ENE,68,0.0,1.0,99,0.00,,,0.13,,2013-02-22 19:51:00,
2013-02-23 06:01:00,77.0,77.0,29.65,North,0,0.0,0.0,99,0.00,,,0.13,,2013-02-22 20:01:00,
2013-02-23 06:11:00,77.0,77.0,29.65,North,0,0.0,0.0,99,0.00,,,0.13,,2013-02-22 20:11:00,
2013-02-23 06:21:00,77.0,77.0,29.66,NW,314,0.0,1.0,99,0.00,,,0.13,,2013-02-22 20:21:00,
2013-02-23 06:31:00,77.0,77.0,29.66,NW,314,0.0,1.0,99,0.00,,,0.13,,2013-02-22 20:31:00,
2013-02-23 06:41:00,77.0,77.0,29.66,NW,314,0.0,1.0,99,0.00,,,0.13,,2013-02-22 20:41:00,
2013-02-23 06:51:00,77.0,77.0,29.68,North,0,0.0,0.0,99,0.00,,,0.13,,2013-02-22 20:51:00,
2013-02-23 07:01:00,77.0,77.0,29.68,North,0,0.0,0.0,99,0.00,,,0.13,,2013-02-22 21:01:00,
2013-02-23 07:11:00,77.0,77.0,29.68,North,0,0.0,0.0,99,0.00,,,0.13,,2013-02-22 21:11:00,
2013-02-23 07:21:00,78.0,78.0,29.69,North,0,0.0,0.0,99,0.00,,,0.13,,2013-02-22 21:21:00,
2013-02-23 07:31:00,78.0,78.0,29.70,North,0,0.0,0.0,99,0.00,,,0.13,,2013-02-22 21:31:00,
2013-02-23 07:42:00,78.0,78.0,29.70,North,0,0.0,0.0,99,0.00,,,0.13,,2013-02-22 21:42:00,
2013-02-23 07:52:00,79.0,79.0,29.71,NNW,337,0.0,1.0,99,0.00,,,0.13,,2013-02-22 21:52:00,
2013-02-23 08:01:00,80.0,80.0,29.72,North,0,0.0,0.0,99,0.00,,,0.13,,2013-02-22 22:01:00,
2013-02-23 08:11:00,80.0,80.0,29.72,North,0,0.0,0.0,99,0.00,,,0.13,,2013-02-22 22:11:00,
2013-02-23 08:21:00,80.0,80.0,29.73,WNW,294,0.0,3.0,99,0.00,,,0.13,,2013-02-22 22:21:00,
2013-02-23 08:31:00,80.0,80.0,29.75,NW,318,0.0,4.0,99,0.00,,,0.13,,2013-02-22 22:31:00,
2013-02-23 08:41:00,80.0,80.0,29.75,NW,318,0.0,4.0,99,0.00,,,0.13,,2013-02-22 22:41:00,
2013-02-23 08:51:00,80.0,80.0,29.76,SSW,201,1.0,4.0,99,0.00,,,0.13,,2013-02-22 22:51:00,
2013-02-23 09:01:00,80.0,80.0,29.77,South,174,0.0,4.0,99,0.00,,,0.13,,2013-02-22 23:01:00,
2013-02-23 09:11:00,80.0,80.0,29.77,South,174,0.0,4.0,99,0.00,,,0.13,,2013-02-22 23:11:00,
2013-02-23 09:21:00,80.0,80.0,29.76,ENE,73,0.0,2.0,99,0.00,,,0.13,,2013-02-22 23:21:00,
2013-02-23 09:31:00,80.0,80.0,29.75,ENE,76,1.0,4.0,99,0.00,,,0.13,,2013-02-22 23:31:00,
2013-02-23 09:40:00,80.0,80.0,29.76,ESE,106,0.0,5.0,99,0.00,,,0.13,,2013-02-22 23:40:00,
2013-02-23 09:41:00,80.0,80.0,29.75,ENE,76,1.0,4.0,99,0.00,,,0.13,,2013-02-22 23:41:00,
2013-02-23 09:52:00,80.0,80.0,29.75,East,96,1.0,4.0,99,0.00,,,0.13,,2013-02-22 23:52:00,
2013-02-23 10:01:00,80.0,80.0,29.76,ESE,106,0.0,5.0,99,0.00,,,0.13,,2013-02-23 00:01:00,
2013-02-23 10:11:00,80.0,80.0,29.76,ESE,106,0.0,5.0,99,0.00,,,0.13,,2013-02-23 00:11:00,
2013-02-23 10:21:00,80.0,80.0,29.76,ESE,106,0.0,5.0,99,0.00,,,0.13,,2013-02-23 00:21:00,
2013-02-23 10:31:00,80.0,80.0,29.76,ESE,106,0.0,5.0,99,0.00,,,0.13,,2013-02-23 00:31:00,
2013-02-23 10:52:00,81.0,81.0,29.78,East,87,1.0,2.0,99,0.00,,,0.13,,2013-02-23 00:52:00,
2013-02-23 11:01:00,81.0,81.0,29.78,East,87,1.0,2.0,99,0.00,,,0.13,,2013-02-23 01:01:00,
2013-02-23 11:11:00,81.0,81.0,29.78,East,87,1.0,2.0,99,0.00,,,0.13,,2013-02-23 01:11:00,
2013-02-23 11:21:00,82.0,82.0,29.75,East,98,0.0,3.0,99,0.00,,,0.13,,2013-02-23 01:21:00,
2013-02-23 11:31:00,83.0,83.0,29.75,ENE,73,0.0,4.0,99,0.00,,,0.13,,2013-02-23 01:31:00,
2013-02-23 11:42:00,83.0,83.0,29.75,ENE,73,0.0,4.0,99,0.00,,,0.13,,2013-02-23 01:42:00,
2013-02-23 11:52:00,84.0,84.0,29.75,NE,54,0.0,3.0,99,0.00,,,0.13,,2013-02-23 01:52:00,
2013-02-23 12:01:00,86.0,86.0,29.72,ESE,105,0.0,3.0,99,0.00,,,0.13,,2013-02-23 02:01:00,
2013-02-23 12:11:00,85.0,84.0,29.72,SE,125,0.0,3.0,98,0.00,,,0.13,,2013-02-23 02:11:00,
2013-02-23 12:21:00,85.0,84.0,29.72,SE,125,0.0,3.0,98,0.00,,,0.13,,2013-02-23 02:21:00,
2013-02-23 12:31:00,84.0,84.0,29.70,NNE,30,0.0,2.0,99,0.00,,,0.13,,2013-02-23 02:31:00,
2013-02-23 12:41:00,84.0,84.0,29.70,NNE,30,0.0,2.0,99,0.00,,,0.13,,2013-02-23 02:41:00,
2013-02-23 12:52:00,84.0,84.0,29.69,ENE,73,0.0,2.0,99,0.00,,,0.13,,2013-02-23 02:52:00,
2013-02-23 13:01:00,87.0,85.0,29.68,North,8,0.0,2.0,95,0.00,,,0.13,,2013-02-23 03:01:00,
2013-02-23 13:11:00,87.0,85.0,29.68,North,8,0.0,2.0,95,0.00,,,0.13,,2013-02-23 03:11:00,
2013-02-23 13:21:00,89.0,87.0,29.67,NE,39,0.0,2.0,93,0.00,,,0.13,,2013-02-23 03:21:00,
2013-02-23 13:31:00,93.0,88.0,29.66,NNW,346,0.0,2.0,85,0.00,,,0.13,,2013-02-23 03:31:00,
2013-02-23 13:41:00,93.0,88.0,29.66,NNW,346,0.0,2.0,85,0.00,,,0.13,,2013-02-23 03:41:00,
2013-02-23 13:51:00,93.0,88.0,29.66,NNW,346,0.0,2.0,85,0.00,,,0.13,,2013-02-23 03:51:00,
2013-02-23 14:01:00,99.0,86.0,29.66,NW,312,0.0,3.0,67,0.00,,,0.13,,2013-02-23 04:01:00,
2013-02-23 14:11:00,98.0,86.0,29.65,SSW,205,2.0,4.0,69,0.00,,,0.13,,2013-02-23 04:11:00,
2013-02-23 14:21:00,98.0,86.0,29.65,SSW,205,2.0,4.0,69,0.00,,,0.13,,2013-02-23 04:21:00,
2013-02-23 14:31:00,96.0,85.0,29.63,SSW,203,2.0,6.0,72,0.00,,,0.13,,2013-02-23 04:31:00,
2013-02-23 14:41:00,96.0,85.0,29.63,SSW,203,2.0,6.0,72,0.00,,,0.13,,2013-02-23 04:41:00,
2013-02-23 14:52:00,98.0,85.0,29.62,SSE,152,1.0,4.0,67,0.00,,,0.13,,2013-02-23 04:52:00,
2013-02-23 15:01:00,98.0,85.0,29.62,SSE,152,1.0,4.0,67,0.00,,,0.13,,2013-02-23 05:01:00,
2013-02-23 15:11:00,98.0,85.0,29.62,SSE,152,1.0,4.0,67,0.00,,,0.13,,2013-02-23 05:11:00,
2013-02-23 15:22:00,98.0,84.0,29.63,SSE,147,2.0,6.0,65,0.00,,,0.13,,2013-02-23 05:22:00,
2013-02-23 15:32:00,98.0,84.0,29.63,South,173,0.0,3.0,65,0.00,,,0.13,,2013-02-23 05:32:00,
2013-02-23 15:42:00,98.0,84.0,29.63,South,173,0.0,3.0,65,0.00,,,0.13,,2013-02-23 05:42:00,
2013-02-23 15:52:00,91.0,84.0,29.62,SSE,163,2.0,4.0,81,0.00,,,0.13,,2013-02-23 05:52:00,
2013-02-23 16:01:00,90.0,83.0,29.62,SSE,162,0.0,4.0,81,0.00,,,0.13,,2013-02-23 06:01:00,
2013-02-23 16:11:00,90.0,83.0,29.62,SSE,162,0.0,4.0,81,0.00,,,0.13,,2013-02-23 06:11:00,
2013-02-23 16:22:00,89.0,81.0,29.61,ESE,119,1.0,3.0,78,0.00,,,0.13,,2013-02-23 06:22:00,
2013-02-23 16:31:00,89.0,82.0,29.62,ESE,104,0.0,2.0,79,0.00,,,0.13,,2013-02-23 06:31:00,
2013-02-23 16:41:00,89.0,82.0,29.62,ESE,104,0.0,2.0,79,0.00,,,0.13,,2013-02-23 06:41:00,
2013-02-23 16:52:00,89.0,82.0,29.62,ESE,104,0.0,2.0,79,0.00,,,0.13,,2013-02-23 06:52:00,
2013-02-23 17:01:00,88.0,82.0,29.62,East,90,0.0,4.0,82,0.00,,,0.13,,2013-02-23 07:01:00,
2013-02-23 17:11:00,88.0,82.0,29.62,East,90,0.0,4.0,82,0.00,,,0.13,,2013-02-23 07:11:00,
2013-02-23 17:21:00,89.0,82.0,29.62,ESE,113,1.0,5.0,79,0.00,,,0.13,,2013-02-23 07:21:00,
2013-02-23 17:31:00,87.0,82.0,29.62,ESE,115,0.0,4.0,86,0.00,,,0.13,,2013-02-23 07:31:00,
2013-02-23 17:41:00,87.0,82.0,29.62,ESE,115,0.0,4.0,86,0.00,,,0.13,,2013-02-23 07:41:00,
2013-02-23 17:52:00,86.0,83.0,29.62,ESE,105,1.0,4.0,91,0.00,,,0.13,,2013-02-23 07:52:00,
2013-02-23 18:01:00,85.0,83.0,29.63,ESE,108,1.0,3.0,94,0.00,,,0.13,,2013-02-23 08:01:00,
2013-02-23 18:11:00,85.0,83.0,29.63,ESE,108,1.0,3.0,94,0.00,,,0.13,,2013-02-23 08:11:00,
2013-02-23 18:21:00,85.0,82.0,29.62,ESE,108,1.0,5.0,90,0.00,,,0.13,,2013-02-23 08:21:00,
2013-02-23 18:31:00,85.0,82.0,29.62,ESE,108,1.0,5.0,90,0.00,,,0.13,,2013-02-23 08:31:00,
2013-02-23 18:41:00,85.0,82.0,29.62,ESE,108,1.0,5.0,90,0.00,,,0.13,,2013-02-23 08:41:00,
2013-02-23 18:52:00,84.0,81.0,29.65,East,96,0.0,3.0,90,0.00,,,0.00,,2013-02-23 08:52:00,
2013-02-23 19:01:00,83.0,80.0,29.64,East,96,0.0,2.0,90,0.00,,,0.00,,2013-02-23 09:01:00,
2013-02-23 19:11:00,83.0,80.0,29.64,East,96,0.0,2.0,90,0.00,,,0.00,,2013-02-23 09:11:00,
2013-02-23 19:21:00,82.0,79.0,29.64,ESE,103,0.0,2.0,92,0.00,,,0.00,,2013-02-23 09:21:00,
2013-02-23 19:31:00,83.0,81.0,29.64,East,86,0.0,2.0,93,0.00,,,0.00,,2013-02-23 09:31:00,
2013-02-23 19:41:00,83.0,81.0,29.64,East,86,0.0,2.0,93,0.00,,,0.00,,2013-02-23 09:41:00,
2013-02-23 19:52:00,83.0,82.0,29.66,ESE,108,0.0,2.0,96,0.00,,,0.00,,2013-02-23 09:52:00,
2013-02-23 20:01:00,81.0,80.0,29.67,SE,135,0.0,2.0,98,0.00,,,0.00,,2013-02-23 10:01:00,
2013-02-23 20:11:00,81.0,80.0,29.67,SE,135,0.0,2.0,98,0.00,,,0.00,,2013-02-23 10:11:00,
2013-02-23 20:21:00,81.0,81.0,29.67,NE,45,0.0,1.0,99,0.00,,,0.00,,2013-02-23 10:21:00,
2013-02-23 20:31:00,81.0,81.0,29.67,NE,45,0.0,1.0,99,0.00,,,0.00,,2013-02-23 10:31:00,
2013-02-23 20:41:00,81.0,81.0,29.67,NE,45,0.0,1.0,99,0.00,,,0.00,,2013-02-23 10:41:00,
2013-02-23 20:52:00,81.0,81.0,29.67,NE,45,0.0,1.0,99,0.00,,,0.00,,2013-02-23 10:52:00,
2013-02-23 21:01:00,80.0,80.0,29.70,North,1,0.0,1.0,99,0.00,,,0.00,,2013-02-23 11:01:00,
2013-02-23 21:11:00,80.0,80.0,29.70,North,1,0.0,1.0,99,0.00,,,0.00,,2013-02-23 11:11:00,
2013-02-23 21:21:00,79.0,79.0,29.71,North,0,0.0,0.0,99,0.00,,,0.00,,2013-02-23 11:21:00,
2013-02-23 21:32:00,79.0,79.0,29.70,North,0,0.0,0.0,99,0.00,,,0.00,,2013-02-23 11:32:00,
2013-02-23 21:41:00,79.0,79.0,29.70,North,0,0.0,0.0,99,0.00,,,0.00,,2013-02-23 11:41:00,
2013-02-23 21:52:00,79.0,79.0,29.71,North,1,0.0,1.0,99,0.00,,,0.00,,2013-02-23 11:52:00,
2013-02-23 22:01:00,79.0,79.0,29.71,North,1,0.0,1.0,99,0.00,,,0.00,,2013-02-23 12:01:00,
2013-02-23 22:11:00,79.0,79.0,29.71,North,1,0.0,1.0,99,0.00,,,0.00,,2013-02-23 12:11:00,
2013-02-23 22:21:00,79.0,79.0,29.72,North,1,0.0,1.0,99,0.00,,,0.00,,2013-02-23 12:21:00,
2013-02-23 22:32:00,79.0,79.0,29.73,North,0,0.0,0.0,99,0.00,,,0.00,,2013-02-23 12:32:00,
2013-02-23 22:41:00,79.0,79.0,29.73,North,0,0.0,0.0,99,0.00,,,0.00,,2013-02-23 12:41:00,
2013-02-23 22:52:00,79.0,79.0,29.74,North,1,0.0,1.0,99,0.00,,,0.00,,2013-02-23 12:52:00,
2013-02-23 23:01:00,79.0,79.0,29.75,North,0,0.0,0.0,99,0.00,,,0.00,,2013-02-23 13:01:00,
2013-02-23 23:11:00,79.0,79.0,29.75,North,0,0.0,0.0,99,0.00,,,0.00,,2013-02-23 13:11:00,
2013-02-23 23:22:00,79.0,79.0,29.75,North,1,0.0,1.0,99,0.00,,,0.00,,2013-02-23 13:22:00,
2013-02-23 23:31:00,79.0,79.0,29.75,North,0,0.0,0.0,99,0.00,,,0.00,,2013-02-23 13:31:00,
2013-02-23 23:41:00,79.0,79.0,29.75,North,0,0.0,0.0,99,0.00,,,0.00,,2013-02-23 13:41:00,
2013-02-23 23:52:00,79.0,79.0,29.75,North,1,0.0,1.0,99,0.00,,,0.00,,2013-02-23 13:52:00,